Location: Cluj-Napoca
(46.7712°N, 23.6236°E)
Time: 11:10:41
(UTC+03:00)

ISS - Pass Details

Date: 08 May 2021
Orbit: 417 x 422 km, 51.6° (Epoch: 15 May)

Event Time Altitude Azimuth Distance (km) Brightness Sun altitude
Exits shadow 02:16:27 22° 64° (ENE) 975 -1.5 -25.0°
Drops below altitude 10° 02:17:47 10° 64° (ENE) 1,506 -0.5 -24.9°
Sets 02:19:54 0° 65° (ENE) 2,373 0.6 -24.8°
